Regional Weather Roundup
Issued by NWS State College, PA

Home | Current Version | Previous Version | Graphics & Text | Print | Product List | Glossary On
Versions: 1 2 3 4 5 6 7 8 9 10 11 12 13 14 15 16 17 18 19 20 21 22 23 24 25 26 27 28 29 30 31 32 33 34 35 36 37 38 39 40 41 42 43 44 45 46 47 48 49 50
000
ASUS41 KCTP 030903
RWRCTP

REGIONAL WEATHER ROUNDUP
NATIONAL WEATHER SERVICE STATE COLLEGE PA
500 AM EDT SUN MAY 03 2015

Note: "fair" indicates few or no clouds below 12,000 feet with no
significant weather and/or obstructions to visibility.

* = STATION THAT DOES NOT REPORT PRECIPITATION /E.G. RAIN...SNOW...ETC/
    THUNDER OR FOG.

PAZ002>004-007>009-013>016-020>023-029>032-031000-
WESTERN PENNSYLVANIA

CITY           SKY/WX    TMP DP  RH WIND       PRES   REMARKS
ERIE           CLEAR     53  36  52 S7        30.04R
MEADVILLE      CLEAR     52  35  52 CALM      30.06R
FRANKLIN*      CLEAR     46  34  61 CALM      30.08S
NEW CASTLE     FAIR      44  42  93 CALM      30.08R
BEAVER COUNTY  NOT AVBL
BUTLER*        CLEAR     45  37  76 CALM      30.09R
PITTSBURGH INT PTCLDY    51  41  68 CALM      30.07R
PITTSBURGH     CLEAR     53  39  59 S7        30.07R
INDIANA*       MOCLDY    43  39  87 E5        30.11S
LATROBE        CLEAR     45  41  87 CALM      30.10R
WASHINGTON CO* CLEAR     43  37  81 CALM      30.09S
$$

PAZ004>006-010>012-017>019-024>028-033>037-041-042-045-046-049>053-031000-
CENTRAL PENNSYLVANIA

CITY           SKY/WX    TMP DP  RH WIND       PRES   REMARKS
BRADFORD       CLEAR     36  29  75 CALM      30.07R
DUBOIS         CLEAR     49  30  48 CALM      30.07R
CLEARFIELD     CLEAR     45  33  63 CALM      30.08R
JOHNSTOWN      CLEAR     52  33  48 SW5       30.09R
ALTOONA        PTCLDY    48  35  60 SW3       30.09R
STATE COLLEGE  CLEAR     48  32  54 CALM      30.06S
WILLIAMSPORT   PTCLDY    44  37  76 CALM      30.05S
SELINSGROVE    PTCLDY    44  41  89 CALM      30.06R
FT INDIANTOWN  CLEAR     52  38  58 W6        30.06R
CAPITAL CITY   CLEAR     50  41  71 CALM      30.06R
HARRISBURG     PTCLDY    51  44  77 N6        30.05R
YORK           CLEAR     45  39  79 NW3       30.05R
$$

PAZ038>040-043-044-047-048-054-055-060>062-067>071-031000-
EASTERN PENNSYLVANIA

CITY           SKY/WX    TMP DP  RH WIND       PRES   REMARKS
SCRANTON       CLEAR     47  32  56 E6        30.05R
MOUNT POCONO   CLEAR     37  30  75 N3        30.05R
ALLENTOWN      CLEAR     46  43  89 NE3       30.05R
QUAKERTOWN*    SUNNY     45  41  87 CALM      30.05S
READING        CLEAR     48  41  76 CALM      30.04R
LANCASTER      CLEAR     47  44  90 SE5       30.03S
COATESVILLE    PTSUNNY   48  48 100 CALM      30.05R
POTTSTOWN      CLEAR     47  45  93 CALM      30.06R
BLUE BELL      PTCLDY    48  46  93 CALM      30.04S
DOYLESTOWN     PTCLDY    42 N/A N/A CALM      30.04S
WILLOW GROVE   NOT AVBL
NORTH PHILA    PTCLDY    49  38  65 CALM      30.07R
PHILADELPHIA   MOCLDY    51  43  74 E7        30.05S
$$


USA.gov is the U.S. government's official web portal to all federal, state and local government web resources and services.